STARLINK-1728 (46582 NORAD) Tracking and Keplerian Element Data

This shows tracking and keplerian element data for the satellite.

Feedback or suggestion? Click here.




ElementValue
Catalog46582
NameSTARLINK-1728
Epoch Orbit458
Epoch Day304.50002315
Epoch Year2020
RAAN323.9586
Inclination52.9999
Eccentricity0.0001588
Argument of Perigee65.6114
Mean Anonmoly20.3709
Mean Motion15.62710408
Decay Rate0.00087043
L11 46582U 20070BC 20304.50002315 .00087043 00000-0 94783-3 0 9995
L22 46582 52.9999 323.9586 0001588 65.6114 20.3709 15.62710408 4583

Live tracking and technical data element details for STARLINK-1728 (NORAD 46582). STARLINK-1728 can be tracked NOW for your location showing map with azimuth and elevation plus other details from your city location.

Track the satellite on the map from your city or location and see movement details for azimuth, elevation, latitude, longitude, range, height, and movement on the map or in text.







IsCatalogInMostPopularTable: catalog: 46582, numindb: 3
Update: records affected: 1



GetName: 46582 STARLINK-1728

Hit Count: updated at: Sat, 31 Oct 2020 07:09:19 GMT